Home   Weather   Piraeus   Past weeks
Flag for Greece

Past Weather in Piraeus, Greece — Yesterday and Last 2 Weeks

Now
70 °F

Clear.


Feels Like: 70 °F
Forecast: 78 / 69 °F
Wind: No wind

Location: Elefsis Airport

Current Time: Sep 23, 2019 at 10:55:14 pm

Latest Report: Sep 23, 2019 at 10:20 pm


Visibility: 10 mi

Pressure: 29.92 "Hg

Humidity: 78%

Dew Point: 63 °F

Location of PiraeusLocation

Past Weather in Piraeus — Graph

°F

Piraeus Temperature Yesterday

Maximum temperature yesterday: 79 °F (at 2:20 pm)
Minimum temperature yesterday: 61 °F (at 4:50 am)
Average temperature yesterday: 70 °F

High & Low Weather Summary for the Past Weeks

 TemperatureHumidityPressure
High90 °F (Sep 9, 2:20 pm)88% (Sep 13, 7:50 am)30.18 "Hg (Sep 13, 7:50 am)
Low61 °F (Sep 22, 4:50 am)22% (Sep 14, 4:20 pm)29.83 "Hg (Sep 9, 5:50 pm)
Average76 °F48%30.01 "Hg
* Reported Sep 8 9:20 pm — Sep 23 9:20 pm, Piraeus. Weather by CustomWeather, © 2019

Note: Actual official high and low records may vary slightly from our data, if they occured in-between our weather recording intervals... More about our weather records

Advertising

Piraeus Weather History for the Previous 24 Hours

Scroll right to see more
 ConditionsComfort  
Time TempWeatherWind HumidityBarometerVisibility
9:20 pm
Mon, Sep 23
72 °FClear.No wind73%29.92 "Hg10 mi
8:50 pm73 °FClear.No wind74%29.92 "Hg10 mi
8:20 pm73 °FPassing clouds.2 mph74%29.92 "HgN/A
7:50 pm73 °FPassing clouds.5 mph69%29.92 "HgN/A
7:20 pm75 °FPassing clouds.5 mph65%29.92 "HgN/A
6:50 pm75 °FPassing clouds.6 mph65%29.92 "HgN/A
6:20 pm77 °FScattered clouds.6 mph65%29.92 "HgN/A
5:50 pm77 °FScattered clouds.6 mph65%29.92 "HgN/A
5:20 pm79 °FScattered clouds.7 mph58%29.92 "HgN/A
4:50 pm79 °FScattered clouds.6 mph58%29.95 "HgN/A
4:20 pm79 °FScattered clouds.8 mph58%29.95 "HgN/A
3:50 pm81 °FScattered clouds.7 mph54%29.95 "HgN/A
3:20 pm79 °FSunny.7 mph54%29.95 "Hg10 mi
2:50 pm79 °FSunny.6 mph54%29.95 "Hg10 mi
2:20 pm81 °FSunny.6 mph51%29.98 "Hg10 mi
1:50 pm79 °FSunny.8 mph54%29.98 "Hg10 mi
1:20 pm79 °FSunny.6 mph51%30.01 "Hg10 mi
12:50 pm79 °FSunny.5 mph51%30.01 "Hg10 mi
12:20 pm77 °FSunny.5 mph54%30.01 "Hg10 mi
11:50 am77 °FSunny.5 mph54%30.04 "Hg10 mi
11:20 am75 °FSunny.5 mph54%30.04 "Hg10 mi
10:50 am75 °FSunny.No wind54%30.04 "Hg10 mi
10:20 am75 °FSunny.No wind50%30.04 "Hg10 mi
9:50 am73 °FSunny.No wind50%30.04 "Hg10 mi
9:20 am72 °FSunny.No wind50%30.04 "Hg10 mi
8:50 am66 °FSunny.No wind60%30.04 "Hg10 mi
8:20 am64 °FSunny.No wind60%30.04 "Hg10 mi
7:50 am63 °FSunny.No wind64%30.04 "Hg10 mi
7:20 am61 °FSunny.No wind68%30.04 "Hg10 mi
6:50 am61 °FClear.No wind68%30.01 "Hg10 mi
6:20 am61 °FClear.No wind68%30.01 "Hg10 mi
5:50 am61 °FClear.No wind68%30.04 "Hg10 mi
5:20 am61 °FClear.No wind68%30.04 "Hg10 mi
4:50 am63 °FClear.No wind64%30.04 "Hg10 mi
4:20 am61 °FClear.No wind63%30.04 "Hg10 mi
3:50 am63 °FClear.No wind64%30.04 "Hg10 mi
3:20 am63 °FClear.No wind64%30.04 "Hg10 mi
2:50 am63 °FClear.3 mph64%30.04 "Hg10 mi
2:20 am63 °FClear.3 mph64%30.07 "Hg10 mi
1:50 am63 °FClear.No wind64%30.07 "Hg10 mi
1:20 am64 °FClear.3 mph56%30.04 "Hg10 mi
12:50 am64 °FClear.No wind60%30.07 "Hg10 mi
12:20 am64 °FClear.No wind60%30.07 "Hg10 mi
11:50 pm
Sun, Sep 22
64 °FClear.No wind60%30.07 "Hg10 mi
11:20 pm66 °FClear.No wind56%30.07 "Hg10 mi
10:50 pm66 °FClear.3 mph56%30.07 "Hg10 mi
10:20 pm68 °FClear.3 mph53%30.07 "Hg10 mi
Weather by CustomWeather, © 2019

See weather overview